[[{"header":{"parameterUnit":"m.s-1","parameterCategory":1,"la1":30.2991,"la2":30.254,"lo1":-89.0895,"lo2":-89.0444,"dy":0.0017,"dx":0.0017,"nx":28,"ny":28,"refTime":"2024-12-11T09:00:00:Z","depth":0,"parameterNumber":2,"parameterNumberName":"U-component_of_WINDS"},"data":[0,0,0,0,0,0,0,0,0,0,0,0,0,0,0,0,0,0,0,0,0,0,0,0,0,0,0,0,0,0,0,0,0,0,0,0,0,0,0,0,0,0,0,0,0,0,0,0,0,0,0,0,0,0,0,0,0,0,-5.1253,-5.1254,0,-5.1342,-5.1343,-5.1344,-5.1178,-5.1172,-5.1167,-5.1161,-5.1256,-5.1263,-5.1271,0,0,0,0,0,0,0,0,0,0,0,0,0,-5.094,-5.0947,-5.1253,-5.1254,-5.1255,-5.1342,-5.1343,-5.1344,-5.1179,-5.1172,-5.1165,-5.1159,-5.1253,-5.1262,-5.1271,0,0,0,0,0,0,0,0,0,0,0,0,0,-5.1058,-5.0949,-5.1253,-5.1183,-5.1177,-5.1342,-5.1343,-5.1345,-5.118,-5.1172,-5.1164,-5.1156,-5.125,-5.1261,-5.1272,-5.1509,0,0,-5.1308,-5.1313,0,0,0,0,0,0,0,0,-5.1051,-5.1069,-5.1192,-5.1188,-5.1182,-5.124,-5.1267,-5.14,-5.1182,-5.1179,-5.1161,-5.1152,-5.1257,-5.1268,-5.1303,-5.1514,-5.1518,-5.1309,-5.1316,-5.132,-5.1324,0,0,0,0,0,0,0,-5.1043,-5.1064,-5.1288,-5.1194,-5.1188,-5.1147,-5.1155,-5.1291,-5.1264,-5.1179,-5.1167,-5.118,-5.1253,-5.1292,-5.1304,-5.1519,-5.1308,-5.1318,-5.1326,-5.133,-5.1927,-5.1936,0,0,0,0,0,0,-5.1044,-5.1059,-5.1285,-5.1291,-5.1095,-5.116,-5.1168,-5.123,-5.1262,-5.1259,-5.1187,-5.1172,-5.1276,-5.129,-5.1306,-5.1584,-5.132,-5.1331,-5.1338,-5.1918,-5.1929,-5.1939,0,0,0,0,0,0,-5.1038,-5.1065,-5.1282,-5.1172,-5.1196,-5.1174,-5.1245,-5.1236,-5.1275,-5.1268,-5.1262,-5.1232,-5.127,-5.129,-5.1459,-5.1586,-5.1336,-5.1347,-5.1908,-5.1921,-5.1934,-5.2144,0,0,0,0,0,0,-5.1029,-5.1064,-5.1154,-5.1175,-5.1203,-5.1434,-5.1253,-5.1244,-5.1295,-5.1276,-5.1308,-5.1306,-5.1265,-5.1443,-5.1471,-5.1597,-5.1356,-5.1896,-5.1914,-5.193,-5.2126,-5.2163,-5.2195,0,0,0,0,0,-5.1019,-5.1211,-5.1159,-5.1188,-5.1314,-5.1441,-5.1457,-5.1406,-5.1306,-5.1396,-5.1391,-5.1305,-5.1567,-5.1462,-5.1492,-5.1623,-5.1888,-5.1909,-5.1928,-5.211,-5.2156,-5.2194,0,0,0,0,0,0,-5.1207,-5.1212,-5.1155,-5.136,-5.1401,-5.1413,-5.1525,-5.1456,-5.1528,-5.1508,-5.1442,-5.145,-5.1633,-5.1644,-5.1527,-5.1853,-5.1711,-5.1738,-5.1839,-5.1882,-5.1916,-5.1909,-5.1365,0,0,0,0,0,-5.1272,-5.1374,-5.1373,-5.1554,-5.1577,-5.1548,-5.1602,-5.1559,-5.1599,-5.1616,-5.1624,-5.1667,-5.1758,-5.1821,-5.1905,-5.2126,-5.2131,-5.2231,-5.2266,-5.2294,-5.2319,-5.2435,-5.2479,-5.2005,-5.2005,-5.2004,0,0,-5.1408,-5.1423,-5.1492,-5.1592,-5.1619,-5.1727,-5.1564,-5.1685,-5.1764,-5.1635,-5.1795,-5.1802,-5.1846,-5.2042,-5.2128,-5.2057,-5.245,-5.232,-5.2343,-5.2352,-5.246,-5.2505,-5.2545,-5.2019,-5.2016,-5.2014,0,0,-5.171,-5.1733,-5.1885,-5.1915,-5.1957,-5.1936,-5.1972,-5.1994,-5.1994,-5.2153,-5.2057,-5.215,-5.2311,-5.2345,-5.2384,-5.2697,-5.2621,-5.2727,-5.2908,-5.3022,-5.3059,-5.3092,-5.3203,-5.3244,-5.2751,-5.2751,-5.2752,0,-5.1874,-5.2032,-5.1972,-5.2099,-5.2145,-5.2031,-5.2184,-5.2217,-5.2285,-5.232,-5.2239,-5.2436,-5.2457,-5.2659,-5.2735,-5.2771,-5.281,-5.2723,-5.3059,-5.3091,-5.3121,-5.3226,-5.3268,-5.2764,-5.2762,-5.2761,-5.276,0,-5.2231,-5.2342,-5.2459,-5.2527,-5.2586,-5.2726,-5.2687,-5.2755,-5.2706,-5.2694,-5.2856,-5.2878,-5.2964,-5.3008,-5.2963,-5.3204,-5.3158,-5.3069,-5.2925,-5.318,-5.3277,-5.3317,-5.2782,-5.2777,-5.2774,-5.2771,0,0,-5.2656,-5.2686,-5.2731,-5.2759,-5.2796,-5.2881,-5.3015,-5.3098,-5.3157,-5.3207,-5.3318,-5.3455,-5.3372,-5.3416,-5.3373,-5.3474,-5.372,-5.3372,-5.3372,-5.3435,-5.3985,-5.4052,-5.41,-5.3668,-5.3676,-5.3682,-5.3981,0,-5.2956,-5.3186,-5.3135,-5.3361,-5.3462,-5.3354,-5.3471,-5.3507,-5.3499,-5.3583,-5.3573,-5.3671,-5.3555,-5.3581,-5.3675,-5.367,-5.3829,-5.3647,-5.3771,-5.3776,-5.3763,-5.4151,-5.4222,-5.4504,-5.4019,-5.4026,-5.403,0,-5.3336,-5.3399,-5.3636,-5.3655,-5.3696,-5.3802,-5.3872,-5.3955,-5.3992,-5.3979,-5.4028,-5.3964,-5.4097,-5.3951,-5.4132,-5.401,-5.4057,-5.4062,-5.4072,-5.4081,-5.3919,-5.4171,-5.4593,-5.4635,-5.409,-5.4085,-5.4081,0,-5.3622,-5.3766,-5.3926,-5.3953,-5.398,-5.4057,-5.4072,-5.4101,-5.4154,-5.4216,-5.4249,-5.4326,-5.4369,-5.443,-5.4389,-5.4287,-5.4578,-5.4428,-5.457,-5.4572,-5.4637,-5.4633,-5.5072,-5.4668,-5.4668,-5.4667,-5.4666,0,-5.3961,-5.411,-5.4054,-5.4153,-5.4316,-5.4255,-5.4419,-5.4421,-5.4448,-5.4544,-5.4456,-5.4549,-5.449,-5.4578,-5.4547,-5.4701,-5.4722,-5.4714,-5.4704,-5.4722,-5.4723,-5.4753,-5.4732,-5.4678,-5.4676,-5.4673,-5.4671,0,-5.4308,-5.4277,-5.4443,-5.4454,-5.446,-5.458,-5.4589,-5.4681,-5.4665,-5.4788,-5.4814,-5.479,-5.4889,-5.4854,-5.496,-5.4939,-5.5136,-5.5101,-5.5123,-5.5114,-5.5258,-5.5244,-5.573,-5.5791,-5.5349,-5.5353,-5.5357,0,-5.4527,-5.4639,-5.4661,-5.4719,-5.474,-5.4835,-5.4887,-5.4831,-5.489,-5.494,-5.5026,-5.5116,-5.5186,-5.5349,-5.5341,-5.5421,-5.5387,-5.5552,-5.5399,-5.5413,-5.5389,-5.5382,-5.5393,-5.5583,-5.5588,-5.5592,-5.5595,0,-5.4919,-5.4897,-5.4975,-5.5049,-5.5113,-5.5169,-5.5216,-5.5269,-5.5216,-5.5286,-5.5385,-5.5439,-5.5546,-5.5637,-5.5709,-5.5724,-5.5652,-5.5643,-5.568,-5.57,-5.5708,-5.5704,-5.5206,-5.5633,-5.5629,-5.5626,-5.5624,-5.5623,-5.5208,-5.5301,-5.5331,-5.5421,-5.545,-5.5496,-5.5582,-5.5576,-5.5658,-5.574,-5.5702,-5.5817,-5.585,-5.5939,-5.5964,-5.6053,-5.5989,-5.6043,-5.6057,-5.6071,-5.6089,-5.5694,-5.6066,-5.6065,-5.6064,-5.6063,-5.6062,0,-5.5594,-5.5607,-5.569,-5.5759,-5.583,-5.5753,-5.5801,-5.5866,-5.5968,-5.6004,-5.6074,-5.6188,-5.6275,-5.6273,-5.6354,-5.6426,-5.6395,-5.6449,-5.6443,-5.6448,-5.6142,-5.6101,-5.6473,-5.6473,-5.6473,-5.6473,-5.6473,-5.6472,-5.5803,-5.5957,-5.5939,-5.6106,-5.6118,-5.6228,-5.6262,-5.6304,-5.6333,-5.6463,-5.6535,-5.6533,-5.6554,-5.6636,-5.6712,-5.6709,-5.6743,-5.681,-5.6796,-5.651,-5.6469,-5.643,-5.6392,-5.6818,-5.6819,-5.7093,-5.7096,-5.7098]},{"header":{"parameterUnit":"m.s-1","parameterCategory":1,"la1":30.2991,"la2":30.254,"lo1":-89.0895,"lo2":-89.0444,"dy":0.0017,"dx":0.0017,"nx":28,"ny":28,"refTime":"2024-12-11T09:00:00:Z","depth":0,"parameterNumber":3,"parameterNumberName":"V-component_of_WINDS"},"data":[0,0,0,0,0,0,0,0,0,0,0,0,0,0,0,0,0,0,0,0,0,0,0,0,0,0,0,0,0,0,0,0,0,0,0,0,0,0,0,0,0,0,0,0,0,0,0,0,0,0,0,0,0,0,0,0,0,0,-2.1031,-2.1031,0,-2.1044,-2.1044,-2.1045,-2.1028,-2.1027,-2.1027,-2.1026,-2.1039,-2.104,-2.1041,0,0,0,0,0,0,0,0,0,0,0,0,0,-2.099,-2.0991,-2.1031,-2.1031,-2.1032,-2.1044,-2.1044,-2.1045,-2.1028,-2.1027,-2.1027,-2.1026,-2.1039,-2.104,-2.1041,0,0,0,0,0,0,0,0,0,0,0,0,0,-2.1006,-2.0991,-2.1031,-2.1025,-2.1024,-2.1044,-2.1044,-2.1045,-2.1028,-2.1027,-2.1026,-2.1026,-2.1038,-2.104,-2.1041,-2.1067,0,0,-2.1045,-2.1046,0,0,0,0,0,0,0,0,-2.1005,-2.1008,-2.1026,-2.1025,-2.1025,-2.1034,-2.1035,-2.1052,-2.1029,-2.1027,-2.1026,-2.1025,-2.1038,-2.1039,-2.1044,-2.1068,-2.1068,-2.1045,-2.1046,-2.1047,-2.1047,0,0,0,0,0,0,0,-2.1004,-2.1007,-2.1036,-2.1026,-2.1025,-2.1021,-2.1022,-2.1038,-2.1037,-2.1027,-2.1026,-2.1028,-2.1037,-2.1042,-2.1044,-2.1069,-2.1045,-2.1046,-2.1047,-2.1048,-2.1113,-2.1114,0,0,0,0,0,0,-2.1004,-2.1006,-2.1036,-2.1037,-2.1013,-2.1022,-2.1024,-2.1032,-2.1037,-2.1037,-2.1028,-2.1027,-2.104,-2.1042,-2.1044,-2.1074,-2.1047,-2.1048,-2.1049,-2.1112,-2.1113,-2.1114,0,0,0,0,0,0,-2.1003,-2.1007,-2.1035,-2.1021,-2.1024,-2.1024,-2.1033,-2.1032,-2.1037,-2.1038,-2.1038,-2.1033,-2.104,-2.1042,-2.1061,-2.1074,-2.1048,-2.105,-2.1111,-2.1112,-2.1114,-2.1134,0,0,0,0,0,0,-2.1002,-2.1007,-2.1017,-2.1021,-2.1025,-2.1053,-2.1034,-2.1033,-2.104,-2.1038,-2.1043,-2.1043,-2.1039,-2.1059,-2.1063,-2.1075,-2.1051,-2.111,-2.1112,-2.1113,-2.1132,-2.1136,-2.1139,0,0,0,0,0,-2.1001,-2.1023,-2.1018,-2.1021,-2.1038,-2.1054,-2.1056,-2.1051,-2.1041,-2.1051,-2.1051,-2.1043,-2.1072,-2.1061,-2.1065,-2.1078,-2.1109,-2.1111,-2.1113,-2.1131,-2.1135,-2.1139,0,0,0,0,0,0,-2.102,-2.1023,-2.1018,-2.1042,-2.1048,-2.1051,-2.1064,-2.1057,-2.1065,-2.1063,-2.1057,-2.1059,-2.1078,-2.1081,-2.1068,-2.1103,-2.1089,-2.1092,-2.1101,-2.1105,-2.1109,-2.1107,-2.1052,0,0,0,0,0,-2.1027,-2.104,-2.1042,-2.1063,-2.1066,-2.1064,-2.1071,-2.1067,-2.1072,-2.1075,-2.1076,-2.1082,-2.1092,-2.1099,-2.1109,-2.1133,-2.1133,-2.1144,-2.1147,-2.115,-2.1152,-2.1163,-2.1168,-2.1121,-2.1121,-2.1121,0,0,-2.1042,-2.1046,-2.1054,-2.1067,-2.1071,-2.1083,-2.1066,-2.1081,-2.1089,-2.1077,-2.1094,-2.1096,-2.1101,-2.1122,-2.1132,-2.1125,-2.1165,-2.1153,-2.1155,-2.1156,-2.1166,-2.117,-2.1174,-2.1122,-2.1122,-2.1122,0,0,-2.1075,-2.108,-2.1097,-2.1101,-2.1107,-2.1105,-2.1109,-2.1113,-2.1113,-2.1131,-2.1121,-2.1131,-2.115,-2.1154,-2.1158,-2.1191,-2.1182,-2.1194,-2.1212,-2.1223,-2.1226,-2.123,-2.124,-2.1244,-2.1196,-2.1196,-2.1197,0,-2.1093,-2.1111,-2.1107,-2.1121,-2.1126,-2.1115,-2.1132,-2.1136,-2.1145,-2.1148,-2.114,-2.1162,-2.1165,-2.1186,-2.1193,-2.1198,-2.1201,-2.1193,-2.1226,-2.1229,-2.1232,-2.1242,-2.1246,-2.1198,-2.1198,-2.1197,-2.1197,0,-2.1132,-2.1145,-2.1158,-2.1166,-2.1173,-2.1188,-2.1185,-2.1192,-2.1187,-2.1186,-2.1204,-2.1207,-2.1216,-2.1221,-2.1217,-2.1241,-2.1236,-2.1227,-2.1213,-2.1238,-2.1247,-2.1251,-2.12,-2.1199,-2.1199,-2.1198,0,0,-2.1178,-2.1182,-2.1187,-2.119,-2.1195,-2.1204,-2.1218,-2.1227,-2.1233,-2.1239,-2.125,-2.1265,-2.1257,-2.1262,-2.1258,-2.1267,-2.1291,-2.1257,-2.1257,-2.1262,-2.1316,-2.1321,-2.1326,-2.1286,-2.1287,-2.1287,-2.1315,0,-2.121,-2.1234,-2.123,-2.1253,-2.1264,-2.1253,-2.1265,-2.1269,-2.1268,-2.1277,-2.1276,-2.1286,-2.1275,-2.1278,-2.1287,-2.1286,-2.1301,-2.1284,-2.1295,-2.1295,-2.1293,-2.1331,-2.1337,-2.1363,-2.1318,-2.1319,-2.1319,0,-2.125,-2.1257,-2.1282,-2.1283,-2.1287,-2.1298,-2.1305,-2.1314,-2.1318,-2.1316,-2.1321,-2.1315,-2.1328,-2.1314,-2.1331,-2.1319,-2.1323,-2.1323,-2.1324,-2.1324,-2.1308,-2.133,-2.1371,-2.1375,-2.1325,-2.1325,-2.1324,0,-2.1279,-2.1295,-2.1311,-2.1314,-2.1316,-2.1324,-2.1326,-2.1328,-2.1333,-2.1339,-2.1342,-2.135,-2.1354,-2.1359,-2.1355,-2.1345,-2.1372,-2.1358,-2.1371,-2.1371,-2.1376,-2.1376,-2.1417,-2.1381,-2.1381,-2.1381,-2.1381,0,-2.1315,-2.133,-2.1324,-2.1334,-2.135,-2.1344,-2.136,-2.136,-2.1362,-2.1371,-2.1363,-2.1371,-2.1365,-2.1373,-2.137,-2.1384,-2.1386,-2.1384,-2.1383,-2.1384,-2.1384,-2.1386,-2.1384,-2.1382,-2.1382,-2.1381,-2.1381,0,-2.135,-2.1346,-2.1363,-2.1364,-2.1364,-2.1376,-2.1376,-2.1385,-2.1383,-2.1394,-2.1397,-2.1394,-2.1403,-2.1399,-2.1408,-2.1406,-2.1423,-2.142,-2.1422,-2.142,-2.1433,-2.1431,-2.1476,-2.148,-2.1443,-2.1443,-2.1443,0,-2.1372,-2.1383,-2.1384,-2.1389,-2.1391,-2.14,-2.1405,-2.1399,-2.1404,-2.1408,-2.1416,-2.1424,-2.143,-2.1444,-2.1443,-2.145,-2.1446,-2.1461,-2.1447,-2.1447,-2.1444,-2.1443,-2.1443,-2.1463,-2.1464,-2.1464,-2.1465,0,-2.1411,-2.1408,-2.1415,-2.1421,-2.1427,-2.1432,-2.1436,-2.1441,-2.1435,-2.1441,-2.145,-2.1454,-2.1463,-2.147,-2.1476,-2.1477,-2.1469,-2.1469,-2.1472,-2.1473,-2.1473,-2.1472,-2.1428,-2.1468,-2.1468,-2.1467,-2.1467,-2.1467,-2.1439,-2.1447,-2.1449,-2.1457,-2.1459,-2.1463,-2.147,-2.1469,-2.1476,-2.1482,-2.1479,-2.1488,-2.149,-2.1497,-2.1499,-2.1506,-2.15,-2.1504,-2.1505,-2.1506,-2.1507,-2.1473,-2.1507,-2.1507,-2.1507,-2.1507,-2.1507,0,-2.1476,-2.1476,-2.1483,-2.1488,-2.1494,-2.1487,-2.149,-2.1495,-2.1504,-2.1506,-2.1512,-2.1521,-2.1528,-2.1527,-2.1533,-2.1538,-2.1535,-2.154,-2.1539,-2.1539,-2.1513,-2.1509,-2.1542,-2.1542,-2.1542,-2.1542,-2.1542,-2.1542,-2.1496,-2.1509,-2.1507,-2.1521,-2.1521,-2.153,-2.1532,-2.1535,-2.1537,-2.1547,-2.1552,-2.1551,-2.1552,-2.1558,-2.1563,-2.1563,-2.1565,-2.1571,-2.1569,-2.1544,-2.1541,-2.1537,-2.1534,-2.1572,-2.1572,-2.1594,-2.1594,-2.1594]}]]